Hanford, WA
on Monday, February 25, 2013

Monday
Previous Day Next Day
Daily Summary
 ActualAverage (KMWH)Record (KMWH)
Temperature
Mean Temperature °F / °C 38°F / 3°C  
Max Temperature 53°F / 12°C 48°F / 9°C 64°F / 17°C (1986)
Min Temperature 34°F / 1°C 28°F / -2°C 5°F / -15°C (2011)
Degree Days
Heating Degree Days 20 27  
Month to date heating degree days 752  
Since 1 July heating degree days 4426  
Moisture
Dew Point 26°F / -3°C   
Average Humidity 53    
Maximum Humidity 83    
Minimum Humidity 22    
Precipitation
Precipitation 0.02 in / 0.51 cm 0.02 in / 0.51 cm 0.44 in / 1.12 cm (1981)
Month to date precipitation 0.72  
Year to date precipitation 1.86  
Wind
Wind Speed 14 mph / 23 km/h   
Max Wind Speed 30 mph / 48 km/h   
Max Gust Speed 40 mph / 64 km/h   
Visibility 15 miles / 24 kilometers   
Events Rain   

Key: T is trace of precipitation, MM is missing value
Source: NWS Daily Summary
Time(PST)TemperatureDew PointHumidity Pressure Visibility Wind DirectionWind SpeedGust SpeedPrecipitationEvents Conditions
1:50 AM 37.6°F / 3.1°C 27.5°F / -2.5°C 67% 29.99 in / 1015.6 hPa 15.0 miles / 24.1 kilometers North 3.5 mph / 5.6 km/h - N/A   Overcast
2:50 AM 38.5°F / 3.6°C 33.4°F / 0.8°C 82% 29.96 in / 1014.5 hPa 15.0 miles / 24.1 kilometers SE 4.6 mph / 7.4 km/h - 0.02 in / 0.5 cm Rain Light Rain
3:50 AM 39.7°F / 4.3°C 33.4°F / 0.8°C 78% 29.92 in / 1013.2 hPa 15.0 miles / 24.1 kilometers SE 10.4 mph / 16.7 km/h - N/A   Overcast
4:50 AM 39.6°F / 4.2°C 34.9°F / 1.6°C 83% 29.92 in / 1013.2 hPa 15.0 miles / 24.1 kilometers South 10.4 mph / 16.7 km/h - N/A Rain Light Rain
5:50 AM 41.7°F / 5.4°C 34.2°F / 1.2°C 75% 29.91 in / 1012.8 hPa 15.0 miles / 24.1 kilometers SSW 13.8 mph / 22.2 km/h - 0.00 in / 0.0 cm   Overcast
6:50 AM 41.0°F / 5.0°C 33.6°F / 0.9°C 75% 29.92 in / 1013.1 hPa 15.0 miles / 24.1 kilometers WSW 11.5 mph / 18.5 km/h - N/A   Mostly Cloudy
7:50 AM 40.3°F / 4.6°C 33.3°F / 0.7°C 76% 29.94 in / 1013.6 hPa 15.0 miles / 24.1 kilometers West 4.6 mph / 7.4 km/h - N/A   Partly Cloudy
8:50 AM 45.1°F / 7.3°C 30.2°F / -1.0°C 56% 29.96 in / 1014.3 hPa 15.0 miles / 24.1 kilometers SW 23.0 mph / 37.0 km/h 33.4 mph / 53.7 km/h N/A   Partly Cloudy
9:50 AM 48.7°F / 9.3°C 28.6°F / -1.9°C 46% 29.97 in / 1014.8 hPa 15.0 miles / 24.1 kilometers SW 28.8 mph / 46.3 km/h 38.0 mph / 61.1 km/h N/A   Mostly Cloudy
10:50 AM 47.7°F / 8.7°C 27.1°F / -2.7°C 45% 29.97 in / 1014.8 hPa 15.0 miles / 24.1 kilometers SW 27.6 mph / 44.4 km/h 34.5 mph / 55.6 km/h N/A   Mostly Cloudy
11:50 AM 51.1°F / 10.6°C 25.2°F / -3.8°C 36% 29.97 in / 1014.7 hPa 15.0 miles / 24.1 kilometers WSW 28.8 mph / 46.3 km/h 38.0 mph / 61.1 km/h N/A   Mostly Cloudy
12:50 PM 51.3°F / 10.7°C 20.7°F / -6.3°C 30% 29.97 in / 1014.9 hPa 15.0 miles / 24.1 kilometers West 27.6 mph / 44.4 km/h 38.0 mph / 61.1 km/h N/A   Mostly Cloudy
1:50 PM 50.5°F / 10.3°C 21.6°F / -5.8°C 32% 29.99 in / 1015.5 hPa 15.0 miles / 24.1 kilometers West 26.5 mph / 42.6 km/h - N/A   Mostly Cloudy
2:50 PM 51.1°F / 10.6°C 16.0°F / -8.9°C 25% 29.99 in / 1015.5 hPa 15.0 miles / 24.1 kilometers West 28.8 mph / 46.3 km/h 40.3 mph / 64.8 km/h N/A   Mostly Cloudy
3:50 PM 53.8°F / 12.1°C 15.3°F / -9.3°C 22% 30.02 in / 1016.6 hPa 15.0 miles / 24.1 kilometers West 29.9 mph / 48.2 km/h 36.8 mph / 59.3 km/h N/A   Mostly Cloudy
5:50 PM 45.3°F / 7.4°C 16.0°F / -8.9°C 31% 30.07 in / 1018.1 hPa 15.0 miles / 24.1 kilometers West 18.4 mph / 29.6 km/h - N/A   Scattered Clouds
6:50 PM 42.3°F / 5.7°C 17.1°F / -8.3°C 36% 30.11 in / 1019.4 hPa 15.0 miles / 24.1 kilometers WSW 19.6 mph / 31.5 km/h - N/A   Clear
10:50 PM 36.9°F / 2.7°C 20.1°F / -6.6°C 51% 30.18 in / 1021.8 hPa 15.0 miles / 24.1 kilometers WSW 15.0 mph / 24.1 km/h - N/A   Mostly Cloudy
11:50 PM 34.5°F / 1.4°C 20.8°F / -6.2°C 57% 30.20 in / 1022.5 hPa 15.0 miles / 24.1 kilometers West 11.5 mph / 18.5 km/h - N/A   Partly Cloudy
Moon Phase
Feb. 25 Feb. 25 Mar. 04 Mar. 11 Mar. 19
Sunrise:06:44 AM (PST) Moon Rise:06:01 PM (PST)2/25
Sunset:05:39 PM (PST) Moon Set:06:14 AM (PST)2/25

Copyright © 2014 The Weather Underground, Inc.